,�O�C���x[��],����1,�O�C���x[��],����2,���ԉ��x[��],����3,���Ԏ��x[��],����4,�m��2(��󒲎�)���x[��],����5,����[��],����6
2004/11/1 0:00,16.2,0,99,0 ,23.3,0 ,65,0 ,21.2,0 ,18.4,0 
2004/11/1 0:15,16,0,99,0 ,23.2,0 ,65,0 ,21.1,0 ,18.5,0 
2004/11/1 0:30,16,0,99,0 ,23.1,0 ,66,0 ,21,0 ,18.5,0 
2004/11/1 0:45,15.9,0,99,0 ,23,0 ,66,0 ,21,0 ,18.6,0 
2004/11/1 1:00,15.9,0,99,0 ,22.8,0 ,66,0 ,20.9,0 ,18.6,0 
2004/11/1 1:15,15.9,0,99,0 ,22.7,0 ,66,0 ,20.9,0 ,18.7,0 
2004/11/1 1:30,15.9,0,99,0 ,22.6,0 ,67,0 ,20.8,0 ,18.7,0 
2004/11/1 1:45,15.8,0,99,0 ,22.6,0 ,67,0 ,20.8,0 ,18.8,0 
2004/11/1 2:00,15.8,0,99,0 ,22.5,0 ,67,0 ,20.7,0 ,18.8,0 
2004/11/1 2:15,15.9,0,99,0 ,22.4,0 ,67,0 ,20.7,0 ,18.9,0 
2004/11/1 2:30,15.9,0,99,0 ,22.3,0 ,67,0 ,20.7,0 ,18.9,0 
2004/11/1 2:45,15.9,0,99,0 ,22.3,0 ,67,0 ,20.6,0 ,18.9,0 
2004/11/1 3:00,15.8,0,99,0 ,22.2,0 ,67,0 ,20.6,0 ,19,0 
2004/11/1 3:15,15.9,0,99,0 ,22.1,0 ,67,0 ,20.6,0 ,19,0 
2004/11/1 3:30,15.9,0,99,0 ,22.1,0 ,68,0 ,20.5,0 ,19,0 
2004/11/1 3:45,15.9,0,99,0 ,22.1,0 ,68,0 ,20.5,0 ,19.1,0 
2004/11/1 4:00,15.9,0,99,0 ,22,0 ,68,0 ,20.4,0 ,19.1,0 
2004/11/1 4:15,15.8,0,99,0 ,21.9,0 ,68,0 ,20.4,0 ,18.2,0 
2004/11/1 4:30,15.8,0,99,0 ,21.9,0 ,68,0 ,20.4,0 ,18.3,0 
2004/11/1 4:45,15.7,0,99,0 ,21.9,0 ,69,0 ,20.4,0 ,18.4,0 
2004/11/1 5:00,15.8,0,99,0 ,21.9,0 ,69,0 ,20.4,0 ,18.5,0 
2004/11/1 5:15,15.8,0,99,0 ,21.8,0 ,70,0 ,20.4,0 ,18.6,0 
2004/11/1 5:30,15.9,0,99,0 ,21.9,0 ,69,0 ,20.3,0 ,18.7,0 
2004/11/1 5:45,14.7,0,99,0 ,22,0 ,70,0 ,20.5,0 ,18.1,0 
2004/11/1 6:00,14.4,0,99,0 ,22.3,0 ,73,0 ,21,0 ,18.2,0 
2004/11/1 6:15,14.1,0,99,0 ,22.5,0 ,75,0 ,21.5,0 ,17.2,0 
2004/11/1 6:30,14,0,99,0 ,22.7,0 ,75,0 ,21.9,0 ,17.1,0 
2004/11/1 6:45,14,0,99,0 ,22.9,0 ,74,0 ,22,0 ,16.7,0 
2004/11/1 7:00,14.5,0,99,0 ,23.1,0 ,73,0 ,22.2,0 ,17,0 
2004/11/1 7:15,14.4,0,99,0 ,23.2,0 ,71,0 ,22.3,0 ,17.3,0 
2004/11/1 7:30,14.5,0,99,0 ,23.4,0 ,69,0 ,22.4,0 ,15.8,0 
2004/11/1 7:45,15.7,0,99,0 ,23.2,0 ,70,0 ,22.3,0 ,16.3,0 
2004/11/1 8:00,15.8,0,99,0 ,23.1,0 ,70,0 ,22.2,0 ,16.7,0 
2004/11/1 8:15,15.8,0,99,0 ,22.9,0 ,70,0 ,22,0 ,17,0 
2004/11/1 8:30,16,0,99,0 ,22.8,0 ,70,0 ,21.9,0 ,17.2,0 
2004/11/1 8:45,16.1,0,99,0 ,22.7,0 ,71,0 ,21.9,0 ,17.4,0 
2004/11/1 9:00,16.1,0,99,0 ,22.6,0 ,71,0 ,21.8,0 ,17.5,0 
2004/11/1 9:15,16.4,0,99,0 ,22.5,0 ,72,0 ,21.7,0 ,17.6,0 
2004/11/1 9:30,16.4,0,99,0 ,22.4,0 ,72,0 ,21.6,0 ,17.8,0 
2004/11/1 9:45,16.4,0,99,0 ,22.4,0 ,72,0 ,21.5,0 ,17.9,0 
2004/11/1 10:00,16.5,0,99,0 ,22.3,0 ,72,0 ,21.3,0 ,18,0 
2004/11/1 10:15,16.5,0,99,0 ,22.3,0 ,73,0 ,21.2,0 ,18.1,0 
2004/11/1 10:30,16.7,0,99,0 ,22.1,0 ,73,0 ,21.1,0 ,18.1,0 
2004/11/1 10:45,16.7,0,99,0 ,22.1,0 ,73,0 ,21.1,0 ,18.2,0 
2004/11/1 11:00,16.6,0,99,0 ,22,0 ,73,0 ,21,0 ,18.3,0 
2004/11/1 11:15,16.5,0,99,0 ,22,0 ,73,0 ,20.9,0 ,18.3,0 
2004/11/1 11:30,16.6,0,99,0 ,22,0 ,74,0 ,20.8,0 ,18.4,0 
2004/11/1 11:45,16.6,0,99,0 ,21.8,0 ,74,0 ,20.7,0 ,18.5,0 
2004/11/1 12:00,16.7,0,99,0 ,21.8,0 ,73,0 ,20.7,0 ,18.5,0 
2004/11/1 12:15,16.8,0,99,0 ,21.8,0 ,73,0 ,20.6,0 ,18.5,0 
2004/11/1 12:30,16.9,0,99,0 ,21.8,0 ,73,0 ,20.6,0 ,18.6,0 
2004/11/1 12:45,16.9,0,99,0 ,21.7,0 ,74,0 ,20.5,0 ,18.6,0 
2004/11/1 13:00,17,0,99,0 ,21.6,0 ,74,0 ,20.5,0 ,18.7,0 
2004/11/1 13:15,17.1,0,99,0 ,21.6,0 ,74,0 ,20.4,0 ,18.7,0 
2004/11/1 13:30,17.1,0,99,0 ,21.6,0 ,74,0 ,20.4,0 ,18.8,0 
2004/11/1 13:45,17,0,99,0 ,21.5,0 ,73,0 ,20.3,0 ,18.8,0 
2004/11/1 14:00,17.1,0,99,0 ,21.5,0 ,74,0 ,20.3,0 ,18.8,0 
2004/11/1 14:15,17,0,99,0 ,21.5,0 ,74,0 ,20.2,0 ,18.9,0 
2004/11/1 14:30,17,0,99,0 ,21.5,0 ,73,0 ,20.2,0 ,18.9,0 
2004/11/1 14:45,17.1,0,99,0 ,21.5,0 ,73,0 ,20.2,0 ,18.9,0 
2004/11/1 15:00,17,0,99,0 ,21.4,0 ,73,0 ,20.1,0 ,18.9,0 
2004/11/1 15:15,17.1,0,99,0 ,21.4,0 ,73,0 ,20.1,0 ,19,0 
2004/11/1 15:30,17,0,99,0 ,21.3,0 ,73,0 ,20.1,0 ,18.3,0 
2004/11/1 15:45,17,0,99,0 ,21.4,0 ,72,0 ,20,0 ,18.3,0 
2004/11/1 16:00,17.1,0,99,0 ,21.4,0 ,73,0 ,20,0 ,18.4,0 
2004/11/1 16:15,17,0,99,0 ,21.4,0 ,73,0 ,20,0 ,18.5,0 
2004/11/1 16:30,17,0,99,0 ,21.3,0 ,73,0 ,20,0 ,18.6,0 
2004/11/1 16:45,17.1,0,99,0 ,21.2,0 ,72,0 ,19.9,0 ,18.6,0 
2004/11/1 17:00,17,0,99,0 ,21.2,0 ,72,0 ,19.9,0 ,18.7,0 
2004/11/1 17:15,17,0,99,0 ,21.2,0 ,72,0 ,19.9,0 ,18.8,0 
2004/11/1 17:30,17.1,0,99,0 ,21.2,0 ,72,0 ,19.9,0 ,18.8,0 
2004/11/1 17:45,16,0,99,0 ,21.4,0 ,73,0 ,20,0 ,18.9,0 
2004/11/1 18:00,16.1,0,99,0 ,21.6,0 ,74,0 ,20.5,0 ,17.9,0 
2004/11/1 18:15,16.5,0,99,0 ,22.4,0 ,76,0 ,20.9,0 ,18,0 
2004/11/1 18:30,16.1,0,99,0 ,23.3,0 ,74,0 ,20.8,0 ,16.7,0 
2004/11/1 18:45,16.1,0,99,0 ,23.8,0 ,71,0 ,20.7,0 ,16.9,0 
2004/11/1 19:00,15.9,0,99,0 ,24.3,0 ,69,0 ,20.6,0 ,17.1,0 
2004/11/1 19:15,15.7,0,99,0 ,24.7,0 ,68,0 ,20.5,0 ,17.3,0 
2004/11/1 19:30,16,0,99,0 ,25.1,0 ,65,0 ,20.4,0 ,17.4,0 
2004/11/1 19:45,15.8,0,99,0 ,24.7,0 ,63,0 ,20.7,0 ,17.6,0 
2004/11/1 20:00,15.8,0,99,0 ,24.4,0 ,64,0 ,21.1,0 ,17.7,0 
2004/11/1 20:15,15.8,0,99,0 ,24.4,0 ,64,0 ,21.4,0 ,16.3,0 
2004/11/1 20:30,15.9,0,99,0 ,24.5,0 ,64,0 ,21.6,0 ,16.8,0 
2004/11/1 20:45,16.1,0,99,0 ,24.6,0 ,65,0 ,21.9,0 ,17,0 
2004/11/1 21:00,16.6,0,99,0 ,24.4,0 ,65,0 ,22,0 ,17.2,0 
2004/11/1 21:15,16.8,0,99,0 ,24.1,0 ,67,0 ,22,0 ,17.4,0 
2004/11/1 21:30,16.7,0,99,0 ,24,0 ,68,0 ,22,0 ,17.6,0 
2004/11/1 21:45,16.8,0,99,0 ,23.8,0 ,68,0 ,21.9,0 ,17.6,0 
2004/11/1 22:00,16.8,0,99,0 ,23.7,0 ,68,0 ,21.8,0 ,17.4,0 
2004/11/1 22:15,16.8,0,99,0 ,23.6,0 ,70,0 ,21.8,0 ,17.7,0 
2004/11/1 22:30,16.8,0,99,0 ,23.5,0 ,71,0 ,21.7,0 ,17.9,0 
2004/11/1 22:45,16.8,0,99,0 ,23.3,0 ,71,0 ,21.7,0 ,17.2,0 
2004/11/1 23:00,16.6,0,99,0 ,23.2,0 ,71,0 ,21.6,0 ,17.4,0 
2004/11/1 23:15,16.7,0,99,0 ,23.1,0 ,71,0 ,21.5,0 ,17.6,0 
2004/11/1 23:30,16.7,0,99,0 ,23,0 ,72,0 ,21.5,0 ,17.8,0 
2004/11/1 23:45,16.7,0,99,0 ,22.8,0 ,73,0 ,21.4,0 ,18,0 
2004/11/2 0:00,16.6,0,99,0 ,22.8,0 ,73,0 ,21.4,0 ,18.1,0 
2004/11/2 0:15,16.7,0,99,0 ,22.7,0 ,73,0 ,21.3,0 ,18.2,0 
2004/11/2 0:30,16.7,0,99,0 ,22.6,0 ,73,0 ,21.3,0 ,18.3,0 
2004/11/2 0:45,16.5,0,99,0 ,22.5,0 ,73,0 ,21.3,0 ,18.4,0 
2004/11/2 1:00,16.5,0,99,0 ,22.5,0 ,73,0 ,21.2,0 ,18.5,0 
2004/11/2 1:15,16.4,0,99,0 ,22.4,0 ,73,0 ,21.2,0 ,18.6,0 
2004/11/2 1:30,16.4,0,99,0 ,22.4,0 ,73,0 ,21.1,0 ,18.7,0 
2004/11/2 1:45,16.2,0,99,0 ,22.3,0 ,72,0 ,21.1,0 ,18.7,0 
2004/11/2 2:00,16.4,0,99,0 ,22.3,0 ,72,0 ,21.1,0 ,18.8,0 
2004/11/2 2:15,16.3,0,99,0 ,22.2,0 ,73,0 ,21,0 ,18.8,0 
2004/11/2 2:30,16.3,0,99,0 ,22.2,0 ,72,0 ,21,0 ,18.9,0 
2004/11/2 2:45,16.3,0,99,0 ,22.2,0 ,72,0 ,21,0 ,19,0 
2004/11/2 3:00,16.3,0,99,0 ,22.1,0 ,72,0 ,20.9,0 ,19,0 
2004/11/2 3:15,16.3,0,99,0 ,22,0 ,72,0 ,20.9,0 ,19.1,0 
2004/11/2 3:30,16.3,0,99,0 ,22,0 ,72,0 ,20.9,0 ,19.1,0 
2004/11/2 3:45,16.2,0,99,0 ,22,0 ,72,0 ,20.9,0 ,19.1,0 
2004/11/2 4:00,16.2,0,99,0 ,22,0 ,71,0 ,20.8,0 ,19.2,0 
2004/11/2 4:15,16.2,0,99,0 ,21.9,0 ,72,0 ,20.8,0 ,19.2,0 
2004/11/2 4:30,16.1,0,99,0 ,22,0 ,71,0 ,20.8,0 ,19.3,0 
2004/11/2 4:45,16,0,99,0 ,22,0 ,72,0 ,20.8,0 ,19.3,0 
2004/11/2 5:00,15.8,0,99,0 ,21.8,0 ,73,0 ,20.8,0 ,19.4,0 
2004/11/2 5:15,15.6,0,99,0 ,21.8,0 ,72,0 ,20.8,0 ,19.4,0 
2004/11/2 5:30,15.7,0,99,0 ,21.8,0 ,72,0 ,20.7,0 ,19.4,0 
2004/11/2 5:45,15.8,0,99,0 ,21.9,0 ,71,0 ,20.8,0 ,17.7,0 
2004/11/2 6:00,14.9,0,99,0 ,22,0 ,75,0 ,21.1,0 ,17.9,0 
2004/11/2 6:15,14.7,0,99,0 ,22.3,0 ,78,0 ,21.5,0 ,18,0 
2004/11/2 6:30,14.5,0,99,0 ,22.6,0 ,77,0 ,21.9,0 ,18.2,0 
2004/11/2 6:45,14.5,0,99,0 ,22.9,0 ,75,0 ,22.1,0 ,18.3,0 
2004/11/2 7:00,14.6,0,99,0 ,23.1,0 ,75,0 ,22.3,0 ,18.4,0 
2004/11/2 7:15,15,0,99,0 ,23.3,0 ,73,0 ,22.4,0 ,18.5,0 
2004/11/2 7:30,15.7,0,99,0 ,23.5,0 ,72,0 ,22.6,0 ,18.6,0 
2004/11/2 7:45,17.6,0,96,0 ,23.5,0 ,71,0 ,22.6,0 ,18.7,0 
2004/11/2 8:00,16.6,0,90,0 ,23.4,0 ,69,0 ,22.4,0 ,18.8,0 
2004/11/2 8:15,16.8,0,92,0 ,23.3,0 ,69,0 ,22.3,0 ,18.9,0 
2004/11/2 8:30,17.3,0,89,0 ,23.2,0 ,69,0 ,22.2,0 ,19,0 
2004/11/2 8:45,17.2,0,87,0 ,23.1,0 ,69,0 ,22,0 ,19,0 
2004/11/2 9:00,17.8,0,87,0 ,23,0 ,68,0 ,21.9,0 ,19.1,0 
2004/11/2 9:15,17.4,0,86,0 ,22.9,0 ,68,0 ,21.8,0 ,19.2,0 
2004/11/2 9:30,18.3,0,84,0 ,22.9,0 ,68,0 ,21.8,0 ,19.2,0 
2004/11/2 9:45,18.2,0,80,0 ,22.9,0 ,68,0 ,21.7,0 ,19.3,0 
2004/11/2 10:00,18.4,0,82,0 ,22.8,0 ,68,0 ,21.6,0 ,19.3,0 
2004/11/2 10:15,18.6,0,80,0 ,22.7,0 ,68,0 ,21.5,0 ,19.4,0 
2004/11/2 10:30,18.6,0,80,0 ,22.7,0 ,68,0 ,21.5,0 ,19.4,0 
2004/11/2 10:45,18.7,0,79,0 ,22.6,0 ,68,0 ,21.4,0 ,19.5,0 
2004/11/2 11:00,18.9,0,77,0 ,22.6,0 ,68,0 ,21.3,0 ,19.5,0 
2004/11/2 11:15,19,0,77,0 ,22.5,0 ,68,0 ,21.3,0 ,19.5,0 
2004/11/2 11:30,19.1,0,76,0 ,22.5,0 ,68,0 ,21.2,0 ,19.6,0 
2004/11/2 11:45,19,0,77,0 ,22.5,0 ,68,0 ,21.2,0 ,19.6,0 
2004/11/2 12:00,19.5,0,75,0 ,22.4,0 ,68,0 ,21.1,0 ,19.6,0 
2004/11/2 12:15,19.7,0,73,0 ,22.4,0 ,68,0 ,21.1,0 ,19.7,0 
2004/11/2 12:30,19.8,0,73,0 ,22.4,0 ,67,0 ,21,0 ,19.7,0 
2004/11/2 12:45,19.7,0,73,0 ,22.4,0 ,67,0 ,21,0 ,19.7,0 
2004/11/2 13:00,20,0,70,0 ,22.4,0 ,67,0 ,21,0 ,19.7,0 
2004/11/2 13:15,19.5,0,71,0 ,22.4,0 ,67,0 ,21,0 ,19.8,0 
2004/11/2 13:30,19.3,0,71,0 ,22.3,0 ,67,0 ,20.9,0 ,19.8,0 
2004/11/2 13:45,19.3,0,73,0 ,22.3,0 ,67,0 ,20.9,0 ,19.8,0 
2004/11/2 14:00,18.8,0,74,0 ,22.3,0 ,67,0 ,20.9,0 ,19.8,0 
2004/11/2 14:15,18.8,0,74,0 ,22.3,0 ,67,0 ,20.9,0 ,19.9,0 
2004/11/2 14:30,18.9,0,74,0 ,22.2,0 ,67,0 ,20.8,0 ,19.9,0 
2004/11/2 14:45,18.7,0,73,0 ,22.3,0 ,67,0 ,20.8,0 ,19.9,0 
2004/11/2 15:00,18.9,0,72,0 ,22.2,0 ,67,0 ,20.8,0 ,19.9,0 
2004/11/2 15:15,18.9,0,72,0 ,22.2,0 ,67,0 ,20.7,0 ,20,0 
2004/11/2 15:30,18,0,82,0 ,22.2,0 ,67,0 ,20.7,0 ,20,0 
2004/11/2 15:45,18,0,83,0 ,22.1,0 ,67,0 ,20.7,0 ,20,0 
2004/11/2 16:00,17.7,0,83,0 ,22.1,0 ,67,0 ,20.7,0 ,20,0 
2004/11/2 16:15,17.5,0,84,0 ,22,0 ,67,0 ,20.6,0 ,20.1,0 
2004/11/2 16:30,17.1,0,86,0 ,21.9,0 ,67,0 ,20.6,0 ,20.1,0 
2004/11/2 16:45,16.9,0,87,0 ,21.9,0 ,67,0 ,20.6,0 ,20.1,0 
2004/11/2 17:00,16.7,0,88,0 ,21.9,0 ,66,0 ,20.6,0 ,20.1,0 
2004/11/2 17:15,16.4,0,88,0 ,21.9,0 ,66,0 ,20.5,0 ,20.1,0 
2004/11/2 17:30,16.3,0,89,0 ,21.8,0 ,66,0 ,20.5,0 ,20.2,0 
2004/11/2 17:45,16.1,0,90,0 ,21.8,0 ,66,0 ,20.5,0 ,20.2,0 
2004/11/2 18:00,16.1,0,90,0 ,21.7,0 ,66,0 ,20.4,0 ,20.2,0 
2004/11/2 18:15,16,0,91,0 ,21.7,0 ,66,0 ,20.4,0 ,20.2,0 
2004/11/2 18:30,15.9,0,91,0 ,21.7,0 ,66,0 ,20.4,0 ,20.2,0 
2004/11/2 18:45,14.9,0,93,0 ,21.9,0 ,67,0 ,20.5,0 ,20.3,0 
2004/11/2 19:00,14.6,0,96,0 ,22.2,0 ,67,0 ,20.8,0 ,20.3,0 
2004/11/2 19:15,14.9,0,97,0 ,22.4,0 ,66,0 ,21.1,0 ,20.3,0 
2004/11/2 19:30,14.9,0,97,0 ,22.7,0 ,66,0 ,21.4,0 ,20.3,0 
2004/11/2 19:45,14.5,0,97,0 ,22.9,0 ,65,0 ,21.7,0 ,20.4,0 
2004/11/2 20:00,14.4,0,98,0 ,23.2,0 ,64,0 ,21.9,0 ,20.4,0 
2004/11/2 20:15,14.5,0,98,0 ,23.5,0 ,66,0 ,22.3,0 ,20.5,0 
2004/11/2 20:30,14.3,0,99,0 ,24,0 ,65,0 ,22.5,0 ,20.5,0 
2004/11/2 20:45,14.6,0,99,0 ,24.2,0 ,64,0 ,22.6,0 ,20.6,0 
2004/11/2 21:00,14.1,0,99,0 ,24.3,0 ,64,0 ,22.7,0 ,17.9,0 
2004/11/2 21:15,14.2,0,98,0 ,24.4,0 ,64,0 ,22.8,0 ,18,0 
2004/11/2 21:30,14.5,0,99,0 ,24.7,0 ,63,0 ,22.9,0 ,18.2,0 
2004/11/2 21:45,14.1,0,99,0 ,25.1,0 ,63,0 ,22.9,0 ,18.4,0 
2004/11/2 22:00,14.4,0,99,0 ,25.5,0 ,62,0 ,22.7,0 ,18.6,0 
2004/11/2 22:15,14.3,0,99,0 ,25.7,0 ,63,0 ,22.6,0 ,18.7,0 
2004/11/2 22:30,14.3,0,99,0 ,25.9,0 ,63,0 ,22.4,0 ,18.8,0 
2004/11/2 22:45,14.4,0,99,0 ,26.1,0 ,63,0 ,22.3,0 ,18.9,0 
2004/11/2 23:00,14.3,0,99,0 ,26.3,0 ,63,0 ,22.2,0 ,19,0 
2004/11/2 23:15,14.2,0,99,0 ,26.4,0 ,63,0 ,22.1,0 ,19.1,0 
2004/11/2 23:30,14.3,0,99,0 ,26.5,0 ,62,0 ,22,0 ,19.2,0 
2004/11/2 23:45,14.2,0,99,0 ,26.6,0 ,62,0 ,22,0 ,18.4,0 
2004/11/3 0:00,14.3,0,99,0 ,26.8,0 ,62,0 ,22,0 ,18.7,0 
2004/11/3 0:15,14.8,0,99,0 ,26.8,0 ,61,0 ,22.1,0 ,18.9,0 
2004/11/3 0:30,15.1,0,99,0 ,26.2,0 ,64,0 ,22.2,0 ,19,0 
2004/11/3 0:45,15.1,0,98,0 ,25.8,0 ,64,0 ,22.1,0 ,19.1,0 
2004/11/3 1:00,15.1,0,96,0 ,25.6,0 ,65,0 ,22,0 ,19.2,0 
2004/11/3 1:15,15.1,0,96,0 ,25.4,0 ,65,0 ,21.9,0 ,19.3,0 
2004/11/3 1:30,15,0,96,0 ,25.2,0 ,65,0 ,21.8,0 ,19.4,0 
2004/11/3 1:45,15.1,0,96,0 ,25.1,0 ,65,0 ,21.7,0 ,19.5,0 
2004/11/3 2:00,14.8,0,98,0 ,24.9,0 ,65,0 ,21.7,0 ,19.5,0 
2004/11/3 2:15,14.9,0,99,0 ,24.8,0 ,63,0 ,21.7,0 ,19.6,0 
2004/11/3 2:30,15,0,99,0 ,24.5,0 ,62,0 ,21.8,0 ,19.6,0 
2004/11/3 2:45,15,0,99,0 ,24.3,0 ,62,0 ,21.8,0 ,19.7,0 
2004/11/3 3:00,15.1,0,98,0 ,24.1,0 ,62,0 ,21.8,0 ,19.7,0 
2004/11/3 3:15,15,0,99,0 ,24,0 ,62,0 ,21.7,0 ,19.8,0 
2004/11/3 3:30,15.1,0,99,0 ,23.9,0 ,62,0 ,21.7,0 ,19.8,0 
2004/11/3 3:45,14.8,0,99,0 ,23.8,0 ,62,0 ,21.7,0 ,19.9,0 
2004/11/3 4:00,14.9,0,99,0 ,23.6,0 ,62,0 ,21.7,0 ,19.9,0 
2004/11/3 4:15,14.9,0,99,0 ,23.5,0 ,62,0 ,21.6,0 ,19.9,0 
2004/11/3 4:30,15.1,0,99,0 ,23.4,0 ,62,0 ,21.6,0 ,19.2,0 
2004/11/3 4:45,15.2,0,99,0 ,23.4,0 ,62,0 ,21.6,0 ,19.3,0 
2004/11/3 5:00,15.2,0,99,0 ,23.3,0 ,63,0 ,21.6,0 ,19.4,0 
2004/11/3 5:15,15,0,99,0 ,23.2,0 ,63,0 ,21.5,0 ,19.5,0 
2004/11/3 5:30,14.9,0,99,0 ,23.2,0 ,63,0 ,21.5,0 ,19.6,0 
2004/11/3 5:45,14.8,0,99,0 ,23.1,0 ,63,0 ,21.5,0 ,19.6,0 
2004/11/3 6:00,14.7,0,99,0 ,23,0 ,63,0 ,21.5,0 ,19.7,0 
2004/11/3 6:15,14.7,0,99,0 ,22.9,0 ,63,0 ,21.4,0 ,19.7,0 
2004/11/3 6:30,14.6,0,99,0 ,22.9,0 ,63,0 ,21.4,0 ,18.5,0 
2004/11/3 6:45,14.8,0,99,0 ,22.9,0 ,64,0 ,21.4,0 ,18.6,0 
2004/11/3 7:00,14.9,0,99,0 ,22.9,0 ,63,0 ,21.4,0 ,18.7,0 
2004/11/3 7:15,15,0,99,0 ,22.8,0 ,64,0 ,21.4,0 ,18.8,0 
2004/11/3 7:30,14.9,0,99,0 ,22.7,0 ,64,0 ,21.5,0 ,18.9,0 
2004/11/3 7:45,14.1,0,99,0 ,22.9,0 ,65,0 ,21.6,0 ,18.1,0 
2004/11/3 8:00,14,0,99,0 ,23.2,0 ,65,0 ,21.9,0 ,17.8,0 
2004/11/3 8:15,13.3,0,99,0 ,23.4,0 ,65,0 ,22.1,0 ,18.1,0 
2004/11/3 8:30,13.4,0,99,0 ,23.6,0 ,69,0 ,22.4,0 ,18.2,0 
2004/11/3 8:45,13.8,0,99,0 ,23.7,0 ,71,0 ,22.7,0 ,18.4,0 
2004/11/3 9:00,14.2,0,99,0 ,23.9,0 ,71,0 ,22.8,0 ,18.5,0 
2004/11/3 9:15,13.8,0,99,0 ,24,0 ,71,0 ,23,0 ,18.7,0 
2004/11/3 9:30,14.2,0,99,0 ,24.1,0 ,71,0 ,23.1,0 ,18.8,0 
2004/11/3 9:45,14,0,99,0 ,24.3,0 ,70,0 ,23.2,0 ,18.9,0 
2004/11/3 10:00,14.3,0,99,0 ,24.7,0 ,70,0 ,23.2,0 ,19,0 
2004/11/3 10:15,14.3,0,99,0 ,25.2,0 ,70,0 ,22.9,0 ,19.1,0 
2004/11/3 10:30,14.4,0,99,0 ,25,0 ,66,0 ,23,0 ,18.5,0 
2004/11/3 10:45,14.5,0,99,0 ,24.9,0 ,65,0 ,23.2,0 ,18.8,0 
2004/11/3 11:00,14.3,0,99,0 ,24.8,0 ,65,0 ,23.3,0 ,18.9,0 
2004/11/3 11:15,14.6,0,99,0 ,24.9,0 ,65,0 ,23.5,0 ,18.3,0 
2004/11/3 11:30,14.9,0,99,0 ,25.1,0 ,67,0 ,23.8,0 ,18.6,0 
2004/11/3 11:45,14.9,0,98,0 ,25.2,0 ,71,0 ,23.9,0 ,18.8,0 
2004/11/3 12:00,14.8,0,98,0 ,25.4,0 ,73,0 ,24.1,0 ,18.9,0 
2004/11/3 12:15,15.2,0,95,0 ,25.5,0 ,76,0 ,24.3,0 ,19.1,0 
2004/11/3 12:30,15.4,0,93,0 ,25.5,0 ,74,0 ,24.3,0 ,17.9,0 
2004/11/3 12:45,15.2,0,92,0 ,25.4,0 ,70,0 ,24.4,0 ,18.4,0 
2004/11/3 13:00,15.2,0,93,0 ,25.3,0 ,68,0 ,24.4,0 ,18.7,0 
2004/11/3 13:15,15.4,0,93,0 ,25.4,0 ,70,0 ,24.4,0 ,18.9,0 
2004/11/3 13:30,15.2,0,93,0 ,25.5,0 ,69,0 ,24.4,0 ,19.1,0 
2004/11/3 13:45,15.1,0,93,0 ,25.5,0 ,69,0 ,24.4,0 ,19.2,0 
2004/11/3 14:00,15.2,0,93,0 ,25.6,0 ,69,0 ,24.4,0 ,19.3,0 
2004/11/3 14:15,15.3,0,92,0 ,25.6,0 ,68,0 ,24.4,0 ,18.5,0 
2004/11/3 14:30,15.4,0,92,0 ,25.3,0 ,66,0 ,24.2,0 ,18,0 
2004/11/3 14:45,15.4,0,93,0 ,25,0 ,64,0 ,24,0 ,18.3,0 
2004/11/3 15:00,15.2,0,94,0 ,24.8,0 ,64,0 ,23.8,0 ,18.5,0 
2004/11/3 15:15,15.1,0,95,0 ,24.5,0 ,64,0 ,23.6,0 ,18.7,0 
2004/11/3 15:30,15.1,0,95,0 ,24.4,0 ,63,0 ,23.4,0 ,18.9,0 
2004/11/3 15:45,15.1,0,94,0 ,24.2,0 ,63,0 ,23.3,0 ,19,0 
2004/11/3 16:00,14.9,0,95,0 ,24.1,0 ,63,0 ,23.1,0 ,19.1,0 
2004/11/3 16:15,14.9,0,96,0 ,23.9,0 ,63,0 ,23,0 ,19.2,0 
2004/11/3 16:30,14.9,0,97,0 ,23.8,0 ,63,0 ,22.8,0 ,18.4,0 
2004/11/3 16:45,14.8,0,98,0 ,23.9,0 ,65,0 ,22.7,0 ,18.7,0 
2004/11/3 17:00,14.8,0,97,0 ,23.9,0 ,66,0 ,22.6,0 ,18.9,0 
2004/11/3 17:15,14.7,0,96,0 ,23.9,0 ,66,0 ,22.5,0 ,19,0 
2004/11/3 17:30,14.6,0,96,0 ,23.9,0 ,65,0 ,22.4,0 ,19.1,0 
2004/11/3 17:45,14.6,0,96,0 ,23.9,0 ,65,0 ,22.3,0 ,18.5,0 
2004/11/3 18:00,14.6,0,96,0 ,23.9,0 ,65,0 ,22.2,0 ,18.7,0 
2004/11/3 18:15,14.8,0,95,0 ,23.9,0 ,65,0 ,22.1,0 ,18.9,0 
2004/11/3 18:30,14.8,0,95,0 ,24,0 ,75,0 ,22,0 ,19,0 
2004/11/3 18:45,14.5,0,94,0 ,24.2,0 ,75,0 ,22,0 ,18.4,0 
2004/11/3 19:00,14.5,0,98,0 ,24.2,0 ,74,0 ,21.9,0 ,18.6,0 
2004/11/3 19:15,14.3,0,99,0 ,24.2,0 ,73,0 ,21.8,0 ,18.8,0 
2004/11/3 19:30,14.3,0,99,0 ,24.2,0 ,72,0 ,21.7,0 ,18.9,0 
2004/11/3 19:45,14.2,0,99,0 ,24.2,0 ,71,0 ,21.7,0 ,19,0 
2004/11/3 20:00,14.3,0,99,0 ,24.2,0 ,71,0 ,21.6,0 ,19.1,0 
2004/11/3 20:15,14.3,0,99,0 ,24.2,0 ,71,0 ,21.6,0 ,19.1,0 
2004/11/3 20:30,14.2,0,99,0 ,24.2,0 ,71,0 ,21.6,0 ,19.2,0 
2004/11/3 20:45,14.2,0,99,0 ,24.1,0 ,69,0 ,21.8,0 ,17.8,0 
2004/11/3 21:00,14.1,0,99,0 ,24.1,0 ,69,0 ,21.9,0 ,18.1,0 
2004/11/3 21:15,14,0,99,0 ,24,0 ,68,0 ,22,0 ,18.4,0 
2004/11/3 21:30,14.1,0,97,0 ,23.9,0 ,69,0 ,22,0 ,18.5,0 
2004/11/3 21:45,14,0,96,0 ,23.8,0 ,70,0 ,22.1,0 ,18.6,0 
2004/11/3 22:00,14.2,0,94,0 ,23.8,0 ,70,0 ,22.1,0 ,18.8,0 
2004/11/3 22:15,14.1,0,92,0 ,23.7,0 ,71,0 ,22.1,0 ,18.9,0 
2004/11/3 22:30,14,0,90,0 ,23.6,0 ,71,0 ,22.2,0 ,19,0 
2004/11/3 22:45,14,0,87,0 ,23.5,0 ,70,0 ,22.1,0 ,19.1,0 
2004/11/3 23:00,14,0,78,0 ,23.4,0 ,70,0 ,22,0 ,19.1,0 
2004/11/3 23:15,13.9,0,80,0 ,23.3,0 ,69,0 ,22,0 ,19.2,0 
2004/11/3 23:30,13.6,0,83,0 ,23.2,0 ,69,0 ,21.9,0 ,19.3,0 
2004/11/3 23:45,13.3,0,91,0 ,23.1,0 ,69,0 ,21.9,0 ,19.4,0 
2004/11/4 0:00,13.5,0,88,0 ,23,0 ,69,0 ,21.8,0 ,19.4,0 
2004/11/4 0:15,12.8,0,93,0 ,23,0 ,68,0 ,21.8,0 ,19.5,0 
2004/11/4 0:30,13,0,88,0 ,22.9,0 ,68,0 ,21.7,0 ,19.5,0 
2004/11/4 0:45,12.9,0,87,0 ,22.9,0 ,68,0 ,21.7,0 ,19.6,0 
2004/11/4 1:00,13.2,0,89,0 ,22.8,0 ,68,0 ,21.7,0 ,19.6,0 
2004/11/4 1:15,13,0,89,0 ,22.7,0 ,68,0 ,21.6,0 ,19.6,0 
2004/11/4 1:30,12.9,0,93,0 ,22.7,0 ,68,0 ,21.6,0 ,19.7,0 
2004/11/4 1:45,12.8,0,93,0 ,22.7,0 ,67,0 ,21.6,0 ,19.7,0 
2004/11/4 2:00,12.8,0,94,0 ,22.6,0 ,68,0 ,21.5,0 ,19.8,0 
2004/11/4 2:15,12.8,0,95,0 ,22.6,0 ,68,0 ,21.5,0 ,19.8,0 
2004/11/4 2:30,12.8,0,94,0 ,22.5,0 ,68,0 ,21.5,0 ,19.8,0 
2004/11/4 2:45,12.5,0,95,0 ,22.4,0 ,68,0 ,21.5,0 ,19.8,0 
2004/11/4 3:00,12.3,0,98,0 ,22.4,0 ,68,0 ,21.4,0 ,19.9,0 
2004/11/4 3:15,12.2,0,98,0 ,22.4,0 ,68,0 ,21.4,0 ,19.9,0 
2004/11/4 3:30,11.9,0,99,0 ,22.3,0 ,68,0 ,21.4,0 ,19.9,0 
2004/11/4 3:45,11.8,0,99,0 ,22.3,0 ,67,0 ,21.4,0 ,20,0 
2004/11/4 4:00,12,0,96,0 ,22.3,0 ,67,0 ,21.4,0 ,20,0 
2004/11/4 4:15,12.2,0,96,0 ,22.2,0 ,67,0 ,21.3,0 ,20,0 
2004/11/4 4:30,12.4,0,96,0 ,22.2,0 ,67,0 ,21.3,0 ,20,0 
2004/11/4 4:45,12.3,0,96,0 ,22.2,0 ,68,0 ,21.3,0 ,19.3,0 
2004/11/4 5:00,12,0,98,0 ,22.2,0 ,68,0 ,21.3,0 ,19.3,0 
2004/11/4 5:15,11.8,0,99,0 ,22.1,0 ,68,0 ,21.3,0 ,19.4,0 
2004/11/4 5:30,12.1,0,99,0 ,22.1,0 ,67,0 ,21.2,0 ,19.5,0 
2004/11/4 5:45,10.7,0,99,0 ,22.3,0 ,69,0 ,21.4,0 ,19.1,0 
2004/11/4 6:00,10.8,0,99,0 ,22.5,0 ,72,0 ,21.8,0 ,19.2,0 
2004/11/4 6:15,10.6,0,99,0 ,22.8,0 ,72,0 ,22.1,0 ,18,0 
2004/11/4 6:30,10.3,0,99,0 ,23,0 ,71,0 ,22.4,0 ,18.3,0 
2004/11/4 6:45,10.8,0,99,0 ,23.2,0 ,71,0 ,22.6,0 ,18.4,0 
2004/11/4 7:00,10.4,0,99,0 ,23.4,0 ,69,0 ,22.7,0 ,18.5,0 
2004/11/4 7:15,10.9,0,99,0 ,23.6,0 ,69,0 ,22.9,0 ,18,0 
2004/11/4 7:30,11.4,0,99,0 ,23.7,0 ,68,0 ,23,0 ,17.6,0 
2004/11/4 7:45,12.1,0,99,0 ,23.7,0 ,68,0 ,22.9,0 ,17.9,0 
2004/11/4 8:00,12.3,0,99,0 ,23.4,0 ,69,0 ,22.8,0 ,18.2,0 
2004/11/4 8:15,12.5,0,99,0 ,23.3,0 ,68,0 ,22.6,0 ,18.3,0 
2004/11/4 8:30,12.9,0,96,0 ,23.2,0 ,68,0 ,22.5,0 ,18.5,0 
2004/11/4 8:45,12.9,0,92,0 ,23,0 ,67,0 ,22.4,0 ,18.6,0 
2004/11/4 9:00,13.3,0,92,0 ,23,0 ,67,0 ,22.3,0 ,18.8,0 
2004/11/4 9:15,13.6,0,85,0 ,22.9,0 ,67,0 ,22.2,0 ,18.8,0 
2004/11/4 9:30,14.2,0,78,0 ,22.8,0 ,67,0 ,22,0 ,18.9,0 
2004/11/4 9:45,15,0,68,0 ,22.7,0 ,68,0 ,21.9,0 ,19,0 
2004/11/4 10:00,15.6,0,63,0 ,22.7,0 ,68,0 ,21.9,0 ,19.1,0 
2004/11/4 10:15,15.4,0,60,0 ,22.6,0 ,68,0 ,21.8,0 ,19.1,0 
2004/11/4 10:30,17.1,0,54,0 ,22.6,0 ,67,0 ,21.7,0 ,19.2,0 
2004/11/4 10:45,19.2,0,43,0 ,22.6,0 ,67,0 ,21.6,0 ,19.2,0 
2004/11/4 11:00,18.2,0,46,0 ,22.5,0 ,65,0 ,21.5,0 ,19.3,0 
2004/11/4 11:15,16.9,0,49,0 ,22.4,0 ,65,0 ,21.5,0 ,19.3,0 
2004/11/4 11:30,16.9,0,49,0 ,22.4,0 ,65,0 ,21.4,0 ,19.4,0 
2004/11/4 11:45,17.4,0,45,0 ,22.4,0 ,65,0 ,21.3,0 ,19.4,0 
2004/11/4 12:00,17.5,0,43,0 ,22.4,0 ,64,0 ,21.3,0 ,19.5,0 
2004/11/4 12:15,17.4,0,46,0 ,22.4,0 ,64,0 ,21.2,0 ,19.5,0 
2004/11/4 12:30,17.5,0,46,0 ,22.4,0 ,63,0 ,21.2,0 ,19.5,0 
2004/11/4 12:45,17.2,0,48,0 ,22.3,0 ,63,0 ,21.1,0 ,19.6,0 
2004/11/4 13:00,17.2,0,48,0 ,22.3,0 ,63,0 ,21.1,0 ,19.6,0 
2004/11/4 13:15,17.2,0,49,0 ,22.2,0 ,63,0 ,21.1,0 ,19.6,0 
2004/11/4 13:30,17.2,0,51,0 ,22.2,0 ,62,0 ,21,0 ,19.7,0 
2004/11/4 13:45,16.8,0,54,0 ,22.2,0 ,62,0 ,21,0 ,19.7,0 
2004/11/4 14:00,16.7,0,53,0 ,22.1,0 ,62,0 ,20.9,0 ,19.7,0 
2004/11/4 14:15,16.5,0,55,0 ,22.2,0 ,61,0 ,20.9,0 ,19.8,0 
2004/11/4 14:30,16.3,0,53,0 ,22.1,0 ,61,0 ,20.9,0 ,19.8,0 
2004/11/4 14:45,16,0,52,0 ,22.1,0 ,60,0 ,20.8,0 ,19.8,0 
2004/11/4 15:00,15.6,0,53,0 ,22,0 ,60,0 ,20.8,0 ,19.8,0 
2004/11/4 15:15,15.4,0,54,0 ,22,0 ,59,0 ,20.8,0 ,19.8,0 
2004/11/4 15:30,15.4,0,52,0 ,22,0 ,59,0 ,20.7,0 ,19.9,0 
2004/11/4 15:45,15.3,0,52,0 ,21.9,0 ,59,0 ,20.7,0 ,19.9,0 
2004/11/4 16:00,15.3,0,49,0 ,21.8,0 ,58,0 ,20.7,0 ,19.9,0 
2004/11/4 16:15,15.4,0,48,0 ,21.8,0 ,58,0 ,20.6,0 ,19.9,0 
2004/11/4 16:30,15.1,0,49,0 ,21.8,0 ,58,0 ,20.6,0 ,19.9,0 
2004/11/4 16:45,15.1,0,48,0 ,21.7,0 ,57,0 ,20.5,0 ,19.9,0 
2004/11/4 17:00,15.1,0,49,0 ,21.8,0 ,57,0 ,20.5,0 ,20,0 
2004/11/4 17:15,15.1,0,50,0 ,21.7,0 ,57,0 ,20.4,0 ,20,0 
2004/11/4 17:30,14.8,0,52,0 ,21.7,0 ,57,0 ,20.4,0 ,20,0 
2004/11/4 17:45,14.8,0,52,0 ,21.7,0 ,57,0 ,20.4,0 ,20,0 
2004/11/4 18:00,14.7,0,53,0 ,21.6,0 ,57,0 ,20.4,0 ,20,0 
2004/11/4 18:15,14.7,0,54,0 ,21.6,0 ,57,0 ,20.3,0 ,20,0 
2004/11/4 18:30,14.7,0,54,0 ,21.6,0 ,57,0 ,20.3,0 ,20.1,0 
2004/11/4 18:45,14.7,0,54,0 ,21.8,0 ,66,0 ,20.3,0 ,20.1,0 
2004/11/4 19:00,12.6,0,64,0 ,22.1,0 ,67,0 ,20.2,0 ,20.1,0 
2004/11/4 19:15,11.8,0,70,0 ,22.6,0 ,64,0 ,20.3,0 ,20.1,0 
2004/11/4 19:30,11.7,0,75,0 ,22.9,0 ,60,0 ,20.5,0 ,20.1,0 
2004/11/4 19:45,12.3,0,75,0 ,23,0 ,59,0 ,20.9,0 ,20.2,0 
2004/11/4 20:00,13.1,0,66,0 ,22.9,0 ,58,0 ,20.9,0 ,19.4,0 
2004/11/4 20:15,13.7,0,58,0 ,22.8,0 ,58,0 ,21,0 ,18.2,0 
2004/11/4 20:30,13.5,0,61,0 ,22.7,0 ,59,0 ,21.1,0 ,18.4,0 
2004/11/4 20:45,13.8,0,59,0 ,22.7,0 ,60,0 ,21.2,0 ,18.6,0 
2004/11/4 21:00,13.5,0,64,0 ,22.7,0 ,61,0 ,21.2,0 ,18.7,0 
2004/11/4 21:15,13.3,0,67,0 ,22.6,0 ,62,0 ,21.3,0 ,18.8,0 
2004/11/4 21:30,12.9,0,70,0 ,22.6,0 ,63,0 ,21.3,0 ,18.9,0 
2004/11/4 21:45,12.7,0,73,0 ,22.5,0 ,63,0 ,21.3,0 ,18.9,0 
2004/11/4 22:00,11.9,0,75,0 ,22.4,0 ,63,0 ,21.2,0 ,19,0 
2004/11/4 22:15,10.3,0,83,0 ,22.6,0 ,66,0 ,21.5,0 ,18.4,0 
2004/11/4 22:30,10,0,89,0 ,22.8,0 ,68,0 ,21.9,0 ,18.5,0 
2004/11/4 22:45,10.4,0,88,0 ,22.9,0 ,70,0 ,22.2,0 ,18.7,0 
2004/11/4 23:00,10.7,0,91,0 ,23.2,0 ,68,0 ,22.5,0 ,18.8,0 
2004/11/4 23:15,11.5,0,85,0 ,23,0 ,66,0 ,22.3,0 ,18.9,0 
2004/11/4 23:30,11.5,0,82,0 ,22.9,0 ,66,0 ,22.2,0 ,19,0 
2004/11/4 23:45,11.5,0,81,0 ,22.8,0 ,66,0 ,22.1,0 ,19,0 
2004/11/5 0:00,11.5,0,82,0 ,22.7,0 ,66,0 ,21.9,0 ,19.1,0 
2004/11/5 0:15,11.3,0,81,0 ,22.6,0 ,65,0 ,21.8,0 ,19.2,0 
2004/11/5 0:30,11.2,0,82,0 ,22.5,0 ,65,0 ,21.7,0 ,19.2,0 
2004/11/5 0:45,11,0,81,0 ,22.4,0 ,64,0 ,21.7,0 ,19.3,0 
2004/11/5 1:00,10.6,0,85,0 ,22.4,0 ,64,0 ,21.6,0 ,19.3,0 
2004/11/5 1:15,10.6,0,85,0 ,22.3,0 ,64,0 ,21.5,0 ,19.4,0 
2004/11/5 1:30,10.6,0,86,0 ,22.3,0 ,64,0 ,21.5,0 ,19.4,0 
2004/11/5 1:45,10.4,0,85,0 ,22.2,0 ,64,0 ,21.4,0 ,19.4,0 
2004/11/5 2:00,10.5,0,85,0 ,22.1,0 ,64,0 ,21.3,0 ,19.5,0 
2004/11/5 2:15,10,0,86,0 ,22,0 ,64,0 ,21.3,0 ,19.5,0 
2004/11/5 2:30,9.9,0,89,0 ,21.9,0 ,64,0 ,21.2,0 ,19.5,0 
2004/11/5 2:45,9.9,0,89,0 ,21.9,0 ,63,0 ,21.2,0 ,19.6,0 
2004/11/5 3:00,9.4,0,93,0 ,21.9,0 ,63,0 ,21.1,0 ,19.6,0 
2004/11/5 3:15,9.2,0,96,0 ,21.8,0 ,63,0 ,21.1,0 ,19.6,0 
2004/11/5 3:30,9.6,0,95,0 ,21.8,0 ,63,0 ,21.1,0 ,19.6,0 
2004/11/5 3:45,9.8,0,92,0 ,21.8,0 ,62,0 ,21,0 ,19.6,0 
2004/11/5 4:00,9.5,0,90,0 ,21.8,0 ,63,0 ,21,0 ,19.7,0 
2004/11/5 4:15,9.2,0,90,0 ,21.7,0 ,62,0 ,20.9,0 ,19.7,0 
2004/11/5 4:30,9.4,0,91,0 ,21.7,0 ,62,0 ,20.9,0 ,19.7,0 
2004/11/5 4:45,9.1,0,90,0 ,21.7,0 ,64,0 ,20.9,0 ,19.7,0 
2004/11/5 5:00,9.1,0,92,0 ,21.6,0 ,63,0 ,20.8,0 ,19.7,0 
2004/11/5 5:15,9.1,0,91,0 ,21.6,0 ,63,0 ,20.8,0 ,19.8,0 
2004/11/5 5:30,9.2,0,92,0 ,21.5,0 ,62,0 ,20.8,0 ,19.8,0 